Domov               UVHVVR             MKGP            O straneh              
ZDRAVSTVENO VARSTVO RASTLIN
  MREŽA AGROMET. POSTAJ
 ► PROGNOSTIČNA OBVESTILA
AGROMETEOROLOŠKI PODATKI -
ARSO
OBVLADOVANJE TVEGANJ ZARADI
NEUGODNIH VREMENSKIH RAZMER
  ► NARAVNE NESREČE
  ► SUŠA/MOČA
  ► NAMAKANJE
  ► ŽLED (gozdarstvo)
KARTOGRAFSKI PRIKAZI
SPLETNE POVEZAVE
PROJEKTI IN PUBLIKACIJE

AGROMETEOROLOŠKA MREŽA: VREMENSKE POSTAJE IN FENOLOŠKA OPAZOVANJA

Pregled podatkov za lokacijo Slap, meteorološka postaja 49193

Pregled senzorjev na lokaciji

ID Ime Zadnja
vrednost
Datum
zadnje
spremembe
Tip
senzorja
3687 Temperatura 2 m ( °C) 17,51 °C 26.6.2017 00:00 50YA
3688 Relativna vlaga 2 m (% RH) 100 % RH 26.6.2017 00:00 50YA
3689 Omočenost lista (U) 0 U 26.6.2017 00:00 A730WET
3690 Sončno sevanje (W/m2) 143,47 W/m2 26.6.2017 00:00 Pyranometer SP-Lite
3691 Temperatura tal ( °C) 24,5 °C 26.6.2017 00:00 99TG411E
3692 Hitrost vetra (km/h) 1,15 km/h 26.6.2017 00:00 566.2S-176 (200km/h)
3693 Smer vetra (°) 62,08 ° 26.6.2017 00:00 566.2S-130
3694 Padavine 0.2 mm (mm) 0 mm 26.6.2017 00:00 Rain-O-Matic

Pregled podatkov zadnjih 24 ur

Zap.
št.
Datum in čas Slap
Hitrost
vetra
Omočenost
lista
Padavine
0.2
mm
Relativna
vlaga
2
m
Smer
vetra
Sončno
sevanje
Temperatura
2
m
Temperatura
tal
0 25.6.2017 23:00 1,15 0 0 100 62,08 143,47 17,51 24,5
1 25.6.2017 22:30 4,01 0 0 100 144,66 211 17,92 24,57
2 25.6.2017 22:00 1,9 0 0 100 208,66 213,78 18,24 24,61
3 25.6.2017 21:30 1,47 1 0 99,89 164,93 137,54 18,46 24,66
4 25.6.2017 21:00 1,86 0 0 97,96 301,41 1364,19 18,84 24,71
5 25.6.2017 20:30 2,94 0 0 97,51 190,01 2000 21,46 25,28
6 25.6.2017 20:00 2,42 0 0 92,6 201,7 2000 22,57 25,44
7 25.6.2017 19:30 3,83 0 0 88,36 185,22 2000 23,47 25,53
8 25.6.2017 19:00 2,95 0 0 87,33 211,14 2000 24,31 25,61
9 25.6.2017 18:30 4,19 0 0 94,39 196,43 2000 23,74 25,52
10 25.6.2017 18:00 9,23 0 0 91,37 326,02 2000 23,73 25,54
11 25.6.2017 17:30 9,34 1 0,4 99,93 104,73 2000 23,77 25,53
12 25.6.2017 17:00 4,75 1 1,4 100 117,79 2000 23,91 25,58
13 25.6.2017 16:30 2,15 1 1,4 100 339,55 2000 24,16 25,61
14 25.6.2017 16:00 2,51 1 1,8 97,95 76,84 2000 25,16 25,6
15 25.6.2017 15:30 0,61 1 0,6 88,16 241,5 2000 26,16 25,57
16 25.6.2017 15:00 2,01 1 0 76,25 69,32 2000 27,82 25,79
17 25.6.2017 14:30 3,95 0 0 72,1 2,47 2000 27,88 25,79
18 25.6.2017 14:00 5,64 0 0 69,42 286,78 2000 28,39 25,9
19 25.6.2017 13:30 3,24 0 0 61,98 342,4 2000 29,58 26,01
20 25.6.2017 13:00 4,96 0 0 64,11 159,52 2000 28,53 26,05
21 25.6.2017 12:30 6,46 0 0 70,58 156,83 2000 26,02 25,85
22 25.6.2017 12:00 7,49 0 0 78,71 154,66 2000 24,01 25,75
23 25.6.2017 11:30 6,29 0 0 81,59 177,56 2000 23,21 25,63
24 25.6.2017 11:00 20,79 0 0 79,16 255,61 2000 23,99 25,69
25 25.6.2017 10:30 8,48 0 0 57,57 240,21 2000 31,14 25,93
26 25.6.2017 10:00 7,67 0 0 54,18 232,99 2000 31,61 26,05
27 25.6.2017 09:30 5,73 0 0 53,74 148,99 2000 31,83 26,08
28 25.6.2017 09:00 3,43 0 0 59,83 2,01 2000 31,4 26,21
29 25.6.2017 08:30 1,56 0 0 63,39 82,55 2000 30,03 26,14
30 25.6.2017 08:00 2,79 0 0 67,21 173,26 2000 29,03 26,17
31 25.6.2017 07:30 1,23 0 0 75,51 315,34 2000 27,37 26,07
32 25.6.2017 07:00 0,93 0 0 83,29 41,27 2000 25,56 26,07
33 25.6.2017 06:30 2,75 0 0 86,71 9,37 2000 24,79 26,11
34 25.6.2017 06:00 0,47 0 0 88,97 220,49 2000 24,2 26,07
35 25.6.2017 05:30 0,69 0 0 91,99 200,65 2000 23,71 26,15
36 25.6.2017 05:00 3,43 0 0 90,77 306,96 2000 23,65 26,17
37 25.6.2017 04:30 5,48 0 0 93,47 161,66 2000 23,36 26,24
38 25.6.2017 04:00 0,47 0 0 92,89 137,47 1849,12 21,95 25,91
39 25.6.2017 03:30 0,15 0 0 88,38 330,33 99,12 21,48 25,75
40 25.6.2017 03:00 1,54 0 0 87,72 177,61 109,25 21,44 25,81
41 25.6.2017 02:30 0,15 0 0 85,2 229,04 142,4 21,29 25,85
42 25.6.2017 02:00 0,15 0 0 88,83 225,47 100,47 20,54 25,86
43 25.6.2017 01:30 0,15 0 0 85,05 269,3 61,92 20,83 25,92
44 25.6.2017 01:00 2,61 0 0 85,31 172,6 96,77 21,2 25,96
45 25.6.2017 00:30 1,59 0 0 86,38 191,75 111,51 21,69 26,03
© 2011 Ministrstvo za kmetijstvo, gozdarstvo in prehrano. Vse pravice pridržane.